Location: Middelsbur
(53.6609°N, 7.5020°E)
Time: 23:32:20
(UTC+00:00)

Cosmos 1709 Rocket - Pass Details

Date: 06 July 2020
Orbit: 948 x 1002 km, 82.9° (Epoch: 14 August)

Event Time Altitude Azimuth Distance (km) Brightness Sun altitude
Rises 20:50:24 0° 187° (S) 3,680 6.6 -5.9°
Reaches altitude 10° 20:52:54 10° 187° (S) 2,743 5.9 -6.1°
Maximum altitude 20:59:13 88° 99° (E) 1,005 4.1 -6.7°
Drops below altitude 10° 21:05:39 10° 11° (N) 2,786 7.1 -7.2°
Sets 21:08:12 0° 12° (NNE) 3,741 7.8 -7.4°
